Miscellaneous Local Product
Issued by NWS North Platte, NE

Home | Current Version | Previous Version | Graphics & Text | Print | Product List | Glossary On
Versions: 1 2 3 4 5 6 7 8 9 10 11 12 13 14 15 16 17 18 19 20 21 22 23 24 25 26 27 28 29 30 31 32 33 34 35 36 37 38 39 40 41 42 43 44 45 46 47 48 49 50
000
AXUS43 KLBF 200610
MISLBF


WESTERN AND NORTH CENTRAL NEBRASKA HOURLY WEATHER ROUNDUP
NATIONAL WEATHER SERVICE NORTH PLATTE NE
100 AM CDT MON OCT 20 2014

***STATIONS NOT REPORTING VARIABLES SUCH AS SKY/WEATHER OR
PRESSURE ARE PROVIDED BY THE NEBRASKA DEPARTMENT OF
ROADS...RAWS...AND APRS NETWORKS...AND ARE NOT UNDER
NATIONAL WEATHER SERVICE QUALITY CONTROL***

...OBSERVATIONS IN AND NEAR THE EASTERN PANHANDLE OF NEBRASKA...

CITY           SKY/WX    TMP DP  RH WIND       PRES   REMARKS
PINE RIDGE     CLEAR     37  34  89 E3        30.09F
CHADRON        CLEAR     41  38  89 SW6       30.10S
ALLIANCE       FAIR      36  32  85 W3        30.12R
SIDNEY         CLEAR     40  34  79 NW5       30.14S
WHITECLAY        N/A     36  32  87 SE3         N/A
RUSHVILLE        N/A     37  34  87 NW5         N/A  WCI  34
LISCO            N/A     44  35  71 CALM        N/A
BIG SPRINGS      N/A     42  36  78 CALM        N/A
LEWELLEN         N/A     40  35  81 CALM        N/A
$$

...OBSERVATIONS IN NORTH CENTRAL NEBRASKA...

CITY           SKY/WX    TMP DP  RH WIND       PRES   REMARKS
VALENTINE      CLEAR     43  35  73 W6        30.08R
THEDFORD       CLEAR     45  37  75 CALM      30.09R
AINSWORTH      CLEAR     43  36  77 W3        30.07R
O`NEILL        CLEAR     49  40  70 NW6       30.04R
ORD            CLEAR     42  37  82 NW8       30.03R
BROKEN BOW     CLEAR     43  37  79 CALM      30.06R
BROWNLEE         N/A     57  36  44 N5          N/A
SPRINGVIEW       N/A     43  37  80 CALM        N/A
BREWSTER         N/A     44  37  78 W3          N/A
ROSE             N/A     59  42  52 W6          N/A
NEWPORT          N/A     41  37  87 W3          N/A
SARGENT          N/A     46  39  78 CALM        N/A
COMSTOCK         N/A     52  41  66 W3          N/A
CHAMBERS         N/A     44  36  74 CALM        N/A
$$

...OBSERVATIONS IN SOUTHWEST NEBRASKA AND FAR NORTHEAST COLORADO...

CITY           SKY/WX    TMP DP  RH WIND       PRES   REMARKS
WRAY           FAIR      45  37  72 W7        30.12R
HOLYOKE        FAIR      43  36  75 W7        30.12R
IMPERIAL       CLEAR     47  38  71 NW3       30.10R
OGALLALA       CLEAR     42  36  81 CALM      30.10R
NORTH PLATTE   CLEAR     42  37  82 CALM      30.08R
MCCOOK         CLEAR     44  41  89 W3        30.07S
LEXINGTON      CLEAR     42  40  90 W6        30.06R
PAXTON           N/A     42  35  77 CALM        N/A
SUTHERLAND       N/A     39  32  77 W5          N/A
BRADY            N/A     42  37  81 CALM        N/A
GOTHENBURG       N/A     48  40  74 CALM        N/A
CALLAWAY         N/A     41  38  87 NW3         N/A
$$

...SOME WEATHER OBSERVATIONS FROM AROUND THE REGION...

CITY           SKY/WX    TMP DP  RH WIND       PRES   REMARKS
DENVER         PTCLDY    51  35  54 SW9       30.17S
LARAMIE        CLEAR     39  31  72 S10       30.23S WCI  32
CHEYENNE       CLEAR     42  33  70 W8        30.21S
SCOTTSBLUFF    CLEAR     47  36  65 E5        30.12S
RAPID CITY     CLEAR     47  37  68 W5        30.09S
PIERRE         CLEAR     50  37  61 S5        30.04R
WINNER         FAIR      51  36  56 W6        30.06R
SIOUX FALLS    CLEAR     46  38  73 CALM      29.99R
OMAHA          CLEAR     55  47  74 SE5       29.96R
GRAND ISLAND   CLEAR     48  44  86 W6        30.03R
KANSAS CITY    CLEAR     54  50  86 SW7       30.01R
WICHITA        PTCLDY    58  53  84 S6        30.02R
HAYS           CLEAR     52  45  76 NE6       30.03R
LIBERAL        CLEAR     54  45  71 N6        30.05R
GOODLAND       CLEAR     43  40  89 W7        30.12S
$$



USA.gov is the U.S. government's official web portal to all federal, state and local government web resources and services.